Tracking 26911 objects as of 8-Feb-2023
HD Live streaming from Space Station
objects crossing your sky now

THOR ABLESTAR DEB

Track THOR ABLESTAR DEB now!
10-day predictions


NORAD ID: 1504
Int'l Code: 1965-065A
Perigee: 1,066.3 km
Apogee: 1,168.8 km
Inclination: 89.9 °
Period: 107.5 minutes
Semi major axis: 7488 km
RCS: 0.0138 m2 (small)
Launch date: August 13, 1965
Source: United States (US)
Launch site: AIR FORCE WESTERN TEST RANGE (AFWTR)

Note: This is SATELLITE DEBRIS
Your satellite tracking list
Your tracking list is empty




NASA's NSSDC Master Catalog

Two Line Element Set (TLE):
1 01504U 65065A   23038.64047237  .00000260  00000-0  45552-3 0  9993
2 01504  89.8896 250.3426 0068435  99.5680 327.8079 13.39702912803571
Source of the keplerian elements: AFSPC